Location: Saint-Usage
(47.1052°N, 5.2587°E)
Time: 22:56:08
(UTC+02:00)

ISS - Pass Details

Date: 20 September 2021
Orbit: 417 x 423 km, 51.6° (Epoch: 24 October)

Event Time Altitude Azimuth Distance (km) Brightness Sun altitude
Rises 22:24:24 0° 275° (W) 2,364 1.0 -27.1°
Reaches altitude 10° 22:26:35 10° 284° (WNW) 1,502 -0.1 -27.4°
Enters shadow 22:28:05 22° 299° (WNW) 974 -1.2 -27.6°
